TimeMST,TemperatureF,Dew PointF,Humidity,Sea Level PressureIn,VisibilityMPH,Wind Direction,Wind SpeedMPH,Gust SpeedMPH,PrecipitationIn,Events,Conditions,WindDirDegrees,DateUTC
12:53 AM,30.0,14.0,51,30.22,10.0,SSW,9.2,16.1,N/A,,Clear,210,2014-01-21 07:53:00
1:53 AM,30.9,15.1,52,30.17,10.0,SW,16.1,-,N/A,,Clear,220,2014-01-21 08:53:00
2:53 AM,30.9,15.1,52,30.18,10.0,SW,12.7,-,N/A,,Clear,220,2014-01-21 09:53:00
3:53 AM,33.1,15.1,48,30.16,10.0,SW,17.3,-,N/A,,Clear,230,2014-01-21 10:53:00
4:53 AM,34.0,12.0,40,30.17,10.0,West,11.5,-,N/A,,Clear,260,2014-01-21 11:53:00
5:53 AM,32.0,12.9,45,30.17,10.0,West,11.5,-,N/A,,Clear,270,2014-01-21 12:53:00
6:53 AM,34.0,10.9,38,30.18,10.0,West,15.0,-,N/A,,Clear,270,2014-01-21 13:53:00
7:53 AM,33.1,12.0,42,30.18,10.0,West,13.8,-,N/A,,Clear,280,2014-01-21 14:53:00
8:53 AM,39.0,12.0,33,30.17,10.0,WNW,15.0,-,N/A,,Clear,290,2014-01-21 15:53:00
9:53 AM,41.0,14.0,33,30.20,10.0,NW,15.0,-,N/A,,Clear,310,2014-01-21 16:53:00
10:53 AM,44.1,15.1,31,30.20,10.0,NNW,19.6,-,N/A,,Clear,330,2014-01-21 17:53:00
11:53 AM,43.0,16.0,34,30.19,10.0,NNW,20.7,28.8,N/A,,Clear,330,2014-01-21 18:53:00
12:53 PM,44.1,18.0,35,30.17,10.0,NW,13.8,-,N/A,,Scattered Clouds,320,2014-01-21 19:53:00
1:53 PM,44.1,19.0,37,30.16,10.0,NNW,17.3,-,N/A,,Clear,340,2014-01-21 20:53:00
2:53 PM,39.9,21.0,47,30.18,10.0,NNW,13.8,-,N/A,,Overcast,330,2014-01-21 21:53:00
3:53 PM,39.0,21.9,50,30.19,10.0,NW,10.4,-,N/A,,Overcast,310,2014-01-21 22:53:00
4:53 PM,37.0,23.0,57,30.20,10.0,WNW,9.2,-,N/A,,Overcast,290,2014-01-21 23:53:00
5:53 PM,35.1,24.1,64,30.21,10.0,NW,8.1,-,N/A,,Overcast,320,2014-01-22 00:53:00
6:53 PM,34.0,25.0,70,30.22,10.0,NNW,5.8,-,N/A,,Overcast,330,2014-01-22 01:53:00
7:53 PM,33.1,25.0,72,30.22,10.0,NW,6.9,-,N/A,,Overcast,320,2014-01-22 02:53:00
8:53 PM,32.0,26.1,79,30.21,10.0,North,5.8,-,N/A,,Overcast,350,2014-01-22 03:53:00
9:53 PM,32.0,26.1,79,30.20,10.0,NNW,3.5,-,N/A,,Overcast,330,2014-01-22 04:53:00
10:53 PM,32.0,25.0,75,30.19,10.0,WNW,8.1,-,N/A,,Overcast,300,2014-01-22 05:53:00
11:53 PM,30.9,23.0,72,30.21,10.0,NNW,11.5,-,N/A,,Overcast,340,2014-01-22 06:53:00